GW0714 Weather Reports


Display with metric or nautical units.
time (UTC)temp
F
wind
direction
speed
MPH
gust
MPH
rain 1hr
in
rain 24hr
in
rain mn
in
humidity
%
barometer
mb
20260904210054 69 17 5.0 14.0 0.00 0.18 0.16 59 1014.6
20260904205530 69 5 7.0 14.0 0.00 0.18 0.16 59 1014.6
20260904205029 68 350 5.0 13.0 0.00 0.18 0.16 60 1014.6
20260904204552 67 20 1.0 5.0 0.00 0.18 0.16 64 1014.5
20260904204029 67 307 0.0 6.0 0.00 0.18 0.16 62 1014.5
20260904203530 68 338 2.0 8.0 0.00 0.18 0.16 61 1014.5
20260904203057 68 5 3.0 8.0 0.00 0.18 0.16 61 1014.5
20260904202529 68 0 1.0 5.0 0.00 0.18 0.16 63 1014.5
20260904202028 67 336 1.0 5.0 0.00 0.18 0.16 65 1014.5
20260904201550 67 0 0.0 4.0 0.00 0.18 0.16 67 1014.5
20260904201028 66 0 0.0 5.0 0.00 0.18 0.16 67 1014.5
20260904200530 66 5 2.0 11.0 0.00 0.18 0.16 66 1014.6
20260904200101 67 0 2.0 11.0 0.00 0.18 0.16 63 1014.6
20260904195533 67 309 3.0 10.0 0.00 0.18 0.16 63 1014.6
20260904195034 67 284 2.0 9.0 0.00 0.18 0.16 64 1014.7
20260904194545 67 0 1.0 5.0 0.00 0.18 0.16 65 1014.7
20260904194031 67 0 0.0 5.0 0.00 0.18 0.16 70 1014.8
20260904193531 66 345 2.0 8.0 0.00 0.18 0.16 69 1014.9
20260904193050 66 334 4.0 8.0 0.00 0.18 0.16 68 1014.9
20260904192531 66 24 2.0 8.0 0.00 0.18 0.16 69 1015.0
20260904192028 66 304 1.0 7.0 0.00 0.18 0.16 69 1015.0
20260904191550 65 351 0.0 5.0 0.00 0.18 0.16 71 1015.0
20260904191032 65 350 2.0 9.0 0.00 0.18 0.16 71 1015.0
20260904190527 65 0 0.0 9.0 0.00 0.18 0.16 72 1015.2
20260904190050 64 269 4.0 9.0 0.00 0.18 0.16 76 1015.1
20260904185531 64 335 3.0 8.0 0.00 0.18 0.16 76 1015.1
20260904185030 64 0 1.0 6.0 0.00 0.18 0.16 75 1015.1
20260904184552 64 344 1.0 5.0 0.00 0.18 0.16 75 1015.1
20260904184029 64 343 1.0 4.0 0.00 0.18 0.16 79 1015.1
20260904183528 63 27 0.0 8.0 0.00 0.18 0.16 80 1015.1
20260904183050 62 5 2.0 8.0 0.00 0.18 0.16 80 1015.1
20260904182541 62 311 3.0 8.0 0.00 0.18 0.16 81 1015.1
20260904182028 61 0 1.0 7.0 0.00 0.18 0.16 85 1015.2
20260904181549 61 314 2.0 7.0 0.00 0.18 0.16 84 1015.2
20260904181029 61 339 2.0 10.0 0.00 0.18 0.16 84 1015.0
20260904180530 60 338 1.0 10.0 0.00 0.18 0.16 87 1015.1
20260904180054 60 340 2.0 10.0 0.00 0.18 0.16 85 1015.2
20260904175534 59 272 0.0 5.0 0.00 0.18 0.16 88 1015.2
20260904175029 59 290 1.0 5.0 0.00 0.18 0.16 89 1015.1
20260904174549 59 223 0.0 5.0 0.00 0.18 0.16 90 1015.1
20260904174029 58 0 1.0 3.0 0.00 0.18 0.16 91 1015.0
20260904173527 58 292 0.0 5.0 0.00 0.18 0.16 92 1015.0
20260904173100 58 273 0.0 8.0 0.00 0.18 0.16 92 1014.9
20260904172529 58 0 2.0 8.0 0.00 0.18 0.16 91 1014.8
20260904172029 58 269 1.0 4.0 0.00 0.18 0.16 93 1014.7
20260904171546 58 330 0.0 4.0 0.00 0.18 0.16 94 1014.8
20260904171029 58 17 1.0 6.0 0.00 0.18 0.16 94 1014.8
20260904170529 57 255 0.0 6.0 0.00 0.18 0.16 94 1014.7
20260904170054 57 351 1.0 5.0 0.00 0.18 0.16 95 1014.6
20260904165531 57 330 2.0 5.0 0.00 0.18 0.16 95 1014.5
20260904165027 57 0 0.0 8.0 0.00 0.18 0.16 96 1014.4
20260904164550 56 303 2.0 8.0 0.00 0.18 0.16 96 1014.5
20260904164030 56 338 1.0 5.0 0.00 0.18 0.16 96 1014.3
20260904163527 56 303 2.0 5.0 0.00 0.18 0.16 96 1014.3
20260904163046 55 0 1.0 6.0 0.00 0.18 0.16 96 1014.3
20260904162528 55 331 2.0 6.0 0.01 0.18 0.16 95 1014.2
20260904162029 55 333 2.0 5.0 0.01 0.18 0.16 95 1014.2
20260904161549 55 329 2.0 5.0 0.01 0.18 0.16 95 1014.2
20260904161033 55 345 1.0 5.0 0.01 0.18 0.16 96 1014.2
20260904160531 55 5 2.0 5.0 0.02 0.18 0.16 95 1014.3
20260904160053 55 302 2.0 5.0 0.02 0.18 0.16 95 1014.1
20260904155530 55 344 1.0 6.0 0.02 0.18 0.16 96 1014.2
20260904155030 55 333 2.0 6.0 0.02 0.18 0.16 96 1014.2
20260904154550 55 330 1.0 8.0 0.02 0.18 0.16 96 1014.1
20260904154030 55 333 1.0 8.0 0.02 0.18 0.16 96 1014.1
20260904153528 55 323 1.0 6.0 0.02 0.18 0.16 96 1014.0
20260904153046 55 345 0.0 9.0 0.02 0.18 0.16 96 1014.0
20260904152532 55 331 3.0 9.0 0.02 0.17 0.15 95 1014.0
20260904152027 55 319 1.0 9.0 0.03 0.17 0.15 96 1014.0
20260904151553 55 341 3.0 9.0 0.04 0.17 0.15 96 1014.0
20260904151030 55 268 2.0 9.0 0.04 0.17 0.15 96 1014.0
20260904150530 55 335 4.0 9.0 0.04 0.16 0.14 95 1013.9
20260904150050 55 309 3.0 8.0 0.04 0.16 0.14 95 1013.8
20260904145527 55 334 2.0 13.0 0.04 0.16 0.14 95 1013.8
20260904145028 55 340 5.0 13.0 0.04 0.16 0.14 95 1013.8
20260904144546 55 330 2.0 6.0 0.04 0.16 0.14 96 1013.7
20260904144028 55 336 2.0 6.0 0.04 0.16 0.14 95 1013.6
20260904143531 55 325 2.0 8.0 0.04 0.16 0.14 95 1013.5
20260904143046 55 352 2.0 8.0 0.04 0.16 0.14 95 1013.5
20260904142530 56 319 3.0 8.0 0.03 0.15 0.13 95 1013.4
20260904142030 56 324 1.0 4.0 0.02 0.14 0.12 95 1013.3
20260904141556 56 0 1.0 3.0 0.01 0.13 0.11 95 1013.2
20260904141029 56 44 1.0 6.0 0.01 0.13 0.11 95 1013.2
20260904140531 56 327 3.0 6.0 0.00 0.12 0.10 95 1013.1
20260904140105 56 344 1.0 4.0 0.00 0.12 0.10 95 1013.1
20260904135527 56 0 0.0 2.0 0.00 0.12 0.10 96 1013.0
20260904135029 56 0 0.0 3.0 0.00 0.12 0.10 96 1013.0
20260904134610 56 0 0.0 3.0 0.00 0.12 0.10 95 1012.9
20260904134030 56 0 0.0 3.0 0.00 0.12 0.10 96 1013.0
20260904133530 56 0 0.0 4.0 0.00 0.12 0.10 96 1012.9
20260904133048 56 0 1.0 4.0 0.00 0.12 0.10 95 1012.9
20260904132532 56 0 0.0 6.0 0.00 0.12 0.10 96 1012.8
20260904132029 56 0 1.0 6.0 0.00 0.12 0.10 95 1012.8
20260904131552 56 332 3.0 6.0 0.00 0.12 0.10 95 1012.8
20260904131026 56 298 2.0 5.0 0.00 0.12 0.10 95 1012.8
20260904130527 56 345 1.0 5.0 0.00 0.12 0.10 95 1012.7
20260904130049 56 325 1.0 5.0 0.01 0.12 0.10 96 1012.8
20260904125534 56 281 1.0 6.0 0.02 0.12 0.10 96 1012.7
20260904125028 56 323 1.0 6.0 0.02 0.12 0.10 96 1012.7
20260904124548 56 334 2.0 6.0 0.02 0.12 0.10 96 1012.7
20260904124028 56 0 1.0 7.0 0.02 0.12 0.10 95 1012.7
20260904123530 56 331 2.0 7.0 0.02 0.12 0.10 95 1012.7
20260904123059 56 34 3.0 9.0 0.02 0.12 0.10 95 1012.6
20260904122530 55 326 2.0 9.0 0.02 0.12 0.10 95 1012.5
20260904122033 56 360 3.0 9.0 0.02 0.12 0.10 95 1012.6
20260904121553 56 333 2.0 8.0 0.02 0.12 0.10 95 1012.5
20260904121027 56 342 1.0 5.0 0.02 0.12 0.10 95 1012.5
20260904120533 56 309 1.0 5.0 0.02 0.12 0.10 95 1012.4
20260904120050 56 325 1.0 5.0 0.02 0.11 0.09 95 1012.4
20260904115530 56 0 0.0 3.0 0.01 0.10 0.08 96 1012.4
20260904115028 56 330 1.0 5.0 0.01 0.10 0.08 96 1012.3
20260904114552 56 344 1.0 5.0 0.01 0.10 0.08 96 1012.2
20260904114031 56 5 1.0 5.0 0.01 0.10 0.08 95 1012.4
20260904113529 56 28 1.0 3.0 0.01 0.10 0.08 95 1012.4
20260904113051 56 0 0.0 4.0 0.01 0.10 0.08 95 1012.3
20260904112529 56 45 1.0 4.0 0.01 0.10 0.08 95 1012.2
20260904112030 56 333 1.0 5.0 0.01 0.10 0.08 95 1012.3
20260904111549 56 9 1.0 9.0 0.01 0.10 0.08 95 1012.4
20260904111029 56 5 2.0 9.0 0.01 0.10 0.08 95 1012.3
20260904110530 57 360 0.0 6.0 0.01 0.10 0.08 96 1012.3
20260904110058 57 350 2.0 8.0 0.00 0.09 0.07 95 1012.3
20260904105530 57 315 4.0 8.0 0.00 0.09 0.07 95 1012.3
20260904105030 57 5 2.0 9.0 0.00 0.09 0.07 96 1012.1
20260904104550 57 19 4.0 9.0 0.00 0.09 0.07 96 1012.1
20260904104029 57 319 3.0 8.0 0.00 0.09 0.07 96 1012.1
20260904103531 57 352 2.0 6.0 0.01 0.09 0.07 95 1012.1
20260904103050 57 352 3.0 6.0 0.01 0.09 0.07 95 1012.1
20260904102534 57 317 2.0 8.0 0.01 0.09 0.07 95 1012.1
20260904102029 57 26 2.0 8.0 0.01 0.09 0.07 96 1012.1
20260904101552 58 331 3.0 8.0 0.01 0.09 0.07 96 1012.1
20260904101027 58 313 2.0 8.0 0.01 0.09 0.07 96 1012.0
20260904100529 58 327 2.0 8.0 0.01 0.09 0.07 96 1012.0
20260904100059 58 26 2.0 7.0 0.02 0.09 0.07 96 1011.8
20260904095527 58 317 3.0 6.0 0.02 0.09 0.07 96 1011.9
20260904095028 58 326 2.0 5.0 0.02 0.09 0.07 96 1011.9
20260904094600 58 343 2.0 5.0 0.03 0.09 0.07 95 1011.9
20260904094029 58 329 1.0 4.0 0.02 0.08 0.06 95 1011.9
20260904093530 58 335 1.0 6.0 0.02 0.08 0.06 95 1011.9
20260904093050 58 325 2.0 6.0 0.03 0.08 0.06 95 1011.9
20260904092532 58 325 3.0 9.0 0.03 0.08 0.06 95 1011.9
20260904092029 58 342 4.0 9.0 0.03 0.08 0.06 95 1012.0
20260904091550 58 330 5.0 8.0 0.03 0.08 0.06 95 1012.0
20260904091030 58 19 2.0 10.0 0.04 0.08 0.06 95 1012.0
20260904090527 58 314 4.0 10.0 0.04 0.08 0.06 95 1012.0
20260904090055 58 5 2.0 5.0 0.03 0.07 0.05 95 1012.0
20260904085527 58 5 3.0 5.0 0.03 0.07 0.05 95 1012.0
20260904085027 58 336 1.0 6.0 0.03 0.07 0.05 95 1012.1
20260904084557 58 317 2.0 6.0 0.03 0.06 0.04 95 1012.2
20260904084029 58 320 2.0 6.0 0.03 0.06 0.04 95 1012.2
20260904083530 58 316 3.0 8.0 0.03 0.06 0.04 95 1012.2
20260904083127 58 321 3.0 8.0 0.02 0.05 0.03 95 1012.2
20260904082530 58 335 2.0 6.0 0.02 0.05 0.03 95 1012.2
20260904082028 58 333 1.0 6.0 0.02 0.05 0.03 95 1012.3
20260904081547 58 336 3.0 6.0 0.03 0.05 0.03 95 1012.3
20260904081027 58 340 3.0 6.0 0.02 0.04 0.02 95 1012.3
20260904080531 58 10 2.0 8.0 0.02 0.04 0.02 95 1012.3
20260904080045 58 352 3.0 8.0 0.02 0.04 0.02 95 1012.3
20260904075529 58 345 2.0 6.0 0.02 0.04 0.02 95 1012.3
20260904075032 58 350 2.0 6.0 0.02 0.04 0.02 95 1012.4
20260904074551 59 333 2.0 6.0 0.01 0.03 0.01 95 1012.4
20260904074028 59 18 2.0 5.0 0.01 0.03 0.01 95 1012.4
20260904073530 59 23 2.0 6.0 0.01 0.03 0.01 95 1012.4
20260904073057 59 352 2.0 6.0 0.01 0.03 0.01 95 1012.4
20260904072529 59 322 2.0 9.0 0.01 0.03 0.01 95 1012.5
20260904072030 59 342 2.0 9.0 0.01 0.03 0.01 95 1012.5
20260904071611 59 5 4.0 9.0 0.00 0.02 0.00 95 1012.4
20260904071029 59 340 5.0 9.0 0.00 0.02 0.00 94 1012.3
20260904070532 59 333 4.0 9.0 0.00 0.02 0.00 94 1012.4
20260904070109 59 346 4.0 9.0 0.01 0.02 0.00 94 1012.4
20260904065529 59 344 3.0 8.0 0.02 0.02 0.02 94 1012.4
20260904065034 59 26 4.0 8.0 0.02 0.02 0.02 94 1012.4
20260904064549 59 352 2.0 6.0 0.02 0.02 0.02 94 1012.3
20260904064029 59 17 2.0 6.0 0.02 0.02 0.02 94 1012.3
20260904063533 59 352 2.0 6.0 0.02 0.02 0.02 94 1012.2
20260904063100 59 315 1.0 9.0 0.02 0.02 0.02 94 1012.2
20260904062529 59 332 4.0 9.0 0.02 0.02 0.02 93 1012.2
20260904062029 59 25 1.0 5.0 0.02 0.02 0.02 93 1012.3
20260904061549 59 5 3.0 5.0 0.02 0.02 0.02 93 1012.3
20260904061029 59 348 3.0 5.0 0.02 0.02 0.02 93 1012.3
20260904060530 59 0 1.0 5.0 0.01 0.01 0.01 92 1012.2
20260904060045 59 319 2.0 10.0 0.01 0.01 0.01 92 1012.4
20260904055529 60 24 3.0 10.0 0.00 0.00 0.00 91 1012.3
20260904055029 60 352 4.0 10.0 0.00 0.00 0.00 90 1012.3
20260904054553 60 5 3.0 8.0 0.00 0.00 0.00 89 1012.3
20260904054030 60 350 3.0 8.0 0.00 0.00 0.00 89 1012.2
20260904053529 60 342 3.0 8.0 0.00 0.00 0.00 89 1012.2
20260904053101 60 325 3.0 8.0 0.00 0.00 0.00 89 1012.4
20260904052529 60 341 3.0 6.0 0.00 0.00 0.00 89 1012.3
20260904052032 60 335 2.0 6.0 0.00 0.00 0.00 89 1012.3
20260904051549 60 336 1.0 5.0 0.00 0.00 0.00 90 1012.5
20260904051031 60 0 1.0 5.0 0.00 0.00 0.00 90 1012.6
20260904050531 60 0 0.0 6.0 0.00 0.00 0.00 90 1012.6
20260904050043 60 0 2.0 6.0 0.00 0.00 0.00 90 1012.7
20260904045532 60 335 1.0 5.0 0.00 0.00 0.00 90 1012.7
20260904045032 60 328 1.0 5.0 0.00 0.00 0.00 90 1012.7
20260904044549 60 322 2.0 5.0 0.00 0.00 0.00 90 1012.6
20260904044031 60 0 1.0 4.0 0.00 0.00 0.00 90 1012.6
20260904043530 60 327 1.0 4.0 0.00 0.00 0.00 90 1012.5
20260904043056 60 321 0.0 3.0 0.00 0.00 0.00 91 1012.5
20260904042534 60 325 0.0 2.0 0.00 0.00 0.00 91 1012.6
20260904042031 60 0 0.0 1.0 0.00 0.00 0.00 91 1012.7
20260904041544 60 0 0.0 1.0 0.00 0.00 0.00 91 1012.7
20260904041034 60 0 0.0 1.0 0.00 0.00 0.00 91 1012.7
20260904040530 60 0 0.0 1.0 0.00 0.00 0.00 91 1012.6
20260904040104 60 0 0.0 0.0 0.00 0.00 0.00 91 1012.5
20260904035534 60 0 0.0 0.0 0.00 0.00 0.00 91 1012.6
20260904035031 60 0 0.0 0.0 0.00 0.00 0.00 91 1012.6
20260904034550 60 0 0.0 0.0 0.00 0.00 0.00 90 1012.6
20260904034031 60 0 0.0 0.0 0.00 0.00 0.00 90 1012.6
20260904033532 60 0 0.0 1.0 0.00 0.00 0.00 89 1012.5
20260904033046 60 0 0.0 3.0 0.00 0.00 0.00 89 1012.5
20260904032531 61 0 0.0 3.0 0.00 0.00 0.00 88 1012.5
20260904032031 61 0 0.0 0.0 0.00 0.00 0.00 87 1012.6
20260904031553 61 0 0.0 0.0 0.00 0.00 0.00 86 1012.6
20260904031030 61 0 0.0 1.0 0.00 0.00 0.00 86 1012.6
20260904030534 62 0 0.0 2.0 0.00 0.00 0.00 85 1012.6
20260904030053 62 0 0.0 3.0 0.00 0.00 0.00 84 1012.6
20260904025530 62 0 0.0 8.0 0.00 0.00 0.00 84 1012.6
20260904025031 62 86 1.0 8.0 0.00 0.00 0.00 83 1012.6
20260904024549 62 0 0.0 2.0 0.00 0.00 0.00 83 1012.7
20260904024029 62 0 0.0 2.0 0.00 0.00 0.00 83 1012.6
20260904023530 62 0 1.0 3.0 0.00 0.00 0.00 82 1012.7
20260904023046 62 0 0.0 4.0 0.00 0.00 0.00 82 1012.6
20260904022531 62 144 1.0 4.0 0.00 0.00 0.00 81 1012.6
20260904022031 63 0 0.0 6.0 0.00 0.00 0.00 81 1012.6
20260904021550 63 125 1.0 6.0 0.00 0.00 0.00 80 1012.6
20260904021032 63 144 1.0 4.0 0.00 0.00 0.00 79 1012.5
20260904020532 63 0 0.0 5.0 0.00 0.00 0.00 78 1012.5
20260904020050 63 0 0.0 5.0 0.00 0.00 0.00 77 1012.5
20260904015531 63 38 2.0 6.0 0.00 0.00 0.00 77 1012.6
20260904015031 64 51 1.0 6.0 0.00 0.00 0.00 76 1012.6
20260904014545 64 36 1.0 4.0 0.00 0.00 0.00 76 1012.7
20260904014031 64 82 1.0 5.0 0.00 0.00 0.00 75 1012.7
20260904013532 64 46 1.0 9.0 0.00 0.00 0.00 75 1012.8
20260904013050 64 326 1.0 9.0 0.00 0.00 0.00 76 1012.7
20260904012531 64 309 3.0 9.0 0.00 0.00 0.00 76 1012.7
20260904012032 64 351 1.0 8.0 0.00 0.00 0.00 75 1012.8
20260904011550 64 45 1.0 9.0 0.00 0.00 0.00 75 1012.7
20260904011031 64 346 3.0 9.0 0.00 0.00 0.00 76 1012.7
20260904010531 64 11 2.0 8.0 0.00 0.00 0.00 76 1012.9
20260904010046 64 317 0.0 4.0 0.00 0.00 0.00 75 1012.8
20260904005529 64 0 1.0 8.0 0.00 0.00 0.00 75 1013.0
20260904005030 65 5 2.0 9.0 0.00 0.00 0.00 74 1013.1
20260904004553 65 53 1.0 9.0 0.00 0.00 0.00 74 1013.0
20260904004031 65 336 1.0 8.0 0.00 0.00 0.00 74 1013.0
20260904003529 65 25 0.0 9.0 0.00 0.00 0.00 74 1013.0
20260904003049 65 13 3.0 10.0 0.00 0.00 0.00 74 1013.0
20260904002531 65 352 3.0 10.0 0.00 0.00 0.00 74 1012.9
20260904002032 65 352 2.0 6.0 0.00 0.00 0.00 73 1012.8
20260904001550 65 38 1.0 5.0 0.00 0.00 0.00 73 1012.9
20260904001031 65 0 0.0 6.0 0.00 0.00 0.00 73 1013.0
20260904000531 65 301 1.0 7.0 0.00 0.00 0.00 73 1013.1
20260903235535 65 325 2.0 7.0 0.00 0.00 0.00 73 1013.1
20260903235034 65 352 1.0 5.0 0.00 0.00 0.00 72 1013.1
20260903234552 65 325 1.0 7.0 0.00 0.00 0.00 72 1013.1
20260903234031 65 340 2.0 7.0 0.00 0.00 0.00 72 1013.2
20260903233537 65 21 1.0 9.0 0.00 0.00 0.00 72 1013.2
20260903233050 65 0 3.0 9.0 0.00 0.00 0.00 72 1013.2
20260903232532 65 327 4.0 8.0 0.00 0.00 0.00 72 1013.2
20260903232031 65 360 2.0 8.0 0.00 0.00 0.00 72 1013.2
20260903231548 65 42 3.0 8.0 0.00 0.00 0.00 72 1013.2
20260903231031 65 329 2.0 7.0 0.00 0.00 0.00 72 1013.2
20260903230541 65 343 2.0 9.0 0.00 0.00 0.00 72 1013.3
20260903230055 65 339 4.0 10.0 0.00 0.00 0.00 72 1013.4
20260903225529 65 19 4.0 10.0 0.00 0.00 0.00 72 1013.5
20260903225028 65 348 4.0 10.0 0.00 0.00 0.00 71 1013.5
20260903224550 65 360 2.0 5.0 0.00 0.00 0.00 72 1013.5
20260903224029 65 18 2.0 8.0 0.00 0.00 0.00 72 1013.6
20260903223528 65 19 3.0 8.0 0.00 0.00 0.00 71 1013.6
20260903223046 65 335 3.0 7.0 0.00 0.00 0.00 72 1013.6
20260903222529 65 309 2.0 8.0 0.00 0.00 0.00 72 1013.7
20260903222031 65 32 3.0 9.0 0.00 0.00 0.00 72 1013.7
20260903221550 65 330 2.0 9.0 0.00 0.00 0.00 72 1013.9
20260903221025 65 352 3.0 9.0 0.00 0.00 0.00 72 1014.1
20260903220528 65 349 2.0 10.0 0.00 0.00 0.00 72 1014.1
20260903220053 65 342 3.0 10.0 0.00 0.00 0.00 71 1014.1
20260903215530 66 329 1.0 10.0 0.00 0.00 0.00 71 1014.1
20260903215030 66 45 3.0 10.0 0.00 0.00 0.00 70 1014.2
20260903214605 66 56 2.0 8.0 0.00 0.00 0.00 70 1014.2
20260903214031 66 80 1.0 9.0 0.00 0.00 0.00 70 1014.3
20260903213529 66 338 2.0 11.0 0.00 0.00 0.00 69 1014.2
20260903213048 66 84 3.0 11.0 0.00 0.00 0.00 69 1014.3
20260903212535 66 58 2.0 10.0 0.00 0.00 0.00 69 1014.2
20260903212028 66 5 4.0 10.0 0.00 0.00 0.00 69 1014.3
20260903211543 66 22 2.0 9.0 0.00 0.00 0.00 68 1014.3
20260903211026 66 311 3.0 10.0 0.00 0.00 0.00 68 1014.4
20260903210526 66 340 4.0 10.0 0.00 0.00 0.00 68 1014.3